Regional Weather Roundup
Issued by NWS Albany, NY

Home | Current Version | Previous Version | Graphics & Text | Print | Product List | Glossary On
Versions: 1 2 3 4 5 6 7 8 9 10 11 12 13 14 15 16 17 18 19 20 21 22 23 24 25 26 27 28
000
ASUS41 KALY 152210
RWRALY

NEW YORK STATE HOURLY WEATHER ROUNDUP
NATIONAL WEATHER SERVICE ALBANY NY
600 PM EDT TUE APR 15 2014

NOTE: "FAIR" INDICATES FEW OR NO CLOUDS BELOW 12,000 FEET WITH NO
SIGNIFICANT WEATHER AND/OR NO OBSTRUCTIONS TO VISIBILITY.

NYZ032-033-038>043-046>054-057>066-NYZ062>081-152300-
EAST


CITY           SKY/WX    TMP DP  RH WIND       PRES   REMARKS
ALBANY         RAIN      38  33  82 W12G20    29.75R WCI  30
GLENS FALLS    RAIN      44  40  85 W8        29.67R FOG
POUGHKEEPSIE   LGT RAIN  49  46  90 N14G26    29.63R FOG
NEWBURGH       LGT RAIN  46  45  93 W14       29.64R FOG
MONTGOMERY     CLOUDY    47  41  80 NW10      29.65R
WHITE PLAINS   LGT RAIN  51  47  86 NW18      29.59S
ISLIP          LGT RAIN  57  54  89 S23G32    29.58S FOG
NEW YORK CITY  LGT RAIN  51  45  79 NW18      29.61R
CENTRAL PARK   CLOUDY    52  48  86 NW10      29.64R
$$

NYZ005>009-017-018-044>046-055-056-152300-
CENTRAL


CITY           SKY/WX    TMP DP  RH WIND       PRES   REMARKS
FULTON         CLOUDY    30  22  72 W21G33    29.86R WCI  17
SYRACUSE       FLURRIES  30  30 100 W15G23    29.84S WCI  19
ROME           LGT SNOW  30  27  88 W17       29.84R VSB 1   WCI  18
ELMIRA         CLOUDY    35  25  66 NW15G21   29.85R WCI  25
BINGHAMTON     LGT SNOW  30  28  93 NW10G16   29.77R FOG     WCI  21
MONTICELLO     CLOUDY    36  36 100 NW16G25   29.71R WCI  26
$$

NYZ026>034-041>043-152300-
NORTH


CITY           SKY/WX    TMP DP  RH WIND       PRES   REMARKS
WATERTOWN      CLOUDY    34  26  72 W17G26    29.80R WCI  23
FORT DRUM      NOT AVBL
MASSENA        CLOUDY    28  21  75 W18G28    29.77R WCI  15
SARANAC LAKE   LGT SNOW  31  30  96 VRB7      29.63R VSB 1   WCI  24
PLATTSBURGH    LGT RAIN  39  35  86 W9        29.66R WCI  33
$$

NYZ001>004-010>016-019>021-152300-
WEST


CITY           SKY/WX    TMP DP  RH WIND       PRES   REMARKS
NIAGARA FALLS  PTSUNNY   30  20  66 W21G30    29.94R WCI  17
BUFFALO        CLOUDY    30  20  66 W18G25    29.93R WCI  18
DUNKIRK        CLOUDY    29  20  69 NW13G25   29.96R WCI  19
JAMESTOWN      CLOUDY    25  19  80 CALM      29.91R
WELLSVILLE     CLOUDY    27  19  72 NW18G30   29.81F WCI  14
ROCHESTER      CLOUDY    32  21  64 W18G26    29.89R WCI  20
PENN YAN       LGT SNOW  32  27  81 NW7       29.87R WCI  26
$$

             KEY
       WCI = WIND CHILL INDEX
       VSB = VISIBILITY
       HX  = HEAT INDEX
$$



USA.gov is the U.S. government's official web portal to all federal, state and local government web resources and services.